When you browse on this site, cookies collect data to enhance your experience and personalize the content and advertising you see.
Visit our Privacy Policy to learn more. By continuing to use the site, you agree to this use of cookies and data.
  • In France
  • List of Countries
  • For 7 days
  • Water Temperature
  • Weather Map
  • Weather Widgets
  • user-avatar
    Login

    Hourly Weather Bor

    Today, 31 May, Sunday

    Time Temperature Precipitation Wind Pressure Humidity
    00:00 +26°C° 0 mm 1 mps 721 mmHg 74%
    01:00 +26°C° 0 mm 1 mps 721 mmHg 76%
    02:00 +26°C° 0 mm 1 mps 720 mmHg 77%
    03:00 +26°C° 0 mm 1 mps 720 mmHg 77%
    04:00 +26°C° 0 mm 1 mps 721 mmHg 76%
    05:00 +26°C° 0 mm 1 mps 721 mmHg 76%
    06:00 +27°C° 0.1 mm 1 mps 721 mmHg 75%
    07:00 +27°C° 0.1 mm 1 mps 722 mmHg 74%
    08:00 +29°C° 0 mm 2 mps 722 mmHg 72%
    09:00 +30°C° 0 mm 2 mps 722 mmHg 65%
    10:00 +33°C° 0 mm 3 mps 722 mmHg 58%
    11:00 +35°C° 0 mm 3 mps 722 mmHg 51%
    12:00 +35°C° 0 mm 3 mps 722 mmHg 52%
    13:00 +34°C° 0 mm 2 mps 721 mmHg 54%
    14:00 +33°C° 0 mm 1 mps 721 mmHg 54%
    15:00 +32°C° 0.1 mm 1 mps 721 mmHg 59%
    16:00 +31°C° 0.1 mm 1 mps 721 mmHg 65%
    17:00 +30°C° 0.1 mm 2 mps 721 mmHg 70%
    18:00 +29°C° 0 mm 1 mps 721 mmHg 73%
    19:00 +28°C° 0 mm 1 mps 721 mmHg 76%
    20:00 +27°C° 0 mm 1 mps 721 mmHg 78%
    21:00 +27°C° 0 mm 1 mps 721 mmHg 79%
    22:00 +24°C° 0 mm 0 mps 721 mmHg 80%
    23:00 +24°C° 0 mm 0 mps 722 mmHg 81%

    Tomorrow, 1 June, Monday

    Time Temperature Precipitation Wind Pressure Humidity
    00:00 +24°C° 0 mm 0 mps 721 mmHg 82%
    01:00 +24°C° 0 mm 0 mps 721 mmHg 83%
    02:00 +24°C° 0 mm 0 mps 721 mmHg 83%
    03:00 +23°C° 0 mm 0 mps 721 mmHg 84%
    04:00 +23°C° 0 mm 0 mps 721 mmHg 85%
    05:00 +23°C° 0 mm 0 mps 722 mmHg 85%
    06:00 +27°C° 0 mm 1 mps 722 mmHg 80%
    07:00 +28°C° 0 mm 1 mps 723 mmHg 75%
    08:00 +30°C° 0 mm 1 mps 723 mmHg 70%
    09:00 +31°C° 0 mm 2 mps 723 mmHg 63%
    10:00 +34°C° 0 mm 2 mps 723 mmHg 57%
    11:00 +36°C° 0 mm 2 mps 723 mmHg 50%
    12:00 +36°C° 0 mm 2 mps 722 mmHg 47%
    13:00 +37°C° 0 mm 2 mps 721 mmHg 44%
    14:00 +38°C° 0 mm 2 mps 721 mmHg 41%
    15:00 +36°C° 0 mm 1 mps 720 mmHg 44%
    16:00 +35°C° 0 mm 1 mps 720 mmHg 48%
    17:00 +35°C° 0 mm 1 mps 720 mmHg 51%
    18:00 +33°C° 0 mm 1 mps 720 mmHg 54%
    19:00 +31°C° 0 mm 1 mps 720 mmHg 58%
    20:00 +30°C° 0 mm 1 mps 720 mmHg 61%
    21:00 +29°C° 0.4 mm 1 mps 720 mmHg 67%
    22:00 +28°C° 0.4 mm 2 mps 720 mmHg 74%
    23:00 +27°C° 0.4 mm 2 mps 720 mmHg 80%

    Day after tomorrow, 2 June, Tuesday

    Time Temperature Precipitation Wind Pressure Humidity
    00:00 +27°C° 0 mm 1 mps 720 mmHg 81%
    01:00 +26°C° 0 mm 1 mps 720 mmHg 82%
    02:00 +26°C° 0 mm 1 mps 720 mmHg 83%
    03:00 +26°C° 0 mm 1 mps 720 mmHg 84%
    04:00 +26°C° 0 mm 1 mps 720 mmHg 85%
    05:00 +26°C° 0 mm 1 mps 720 mmHg 85%
    06:00 +27°C° 0 mm 2 mps 721 mmHg 81%
    07:00 +28°C° 0 mm 3 mps 721 mmHg 76%
    08:00 +29°C° 0 mm 4 mps 722 mmHg 72%
    09:00 +32°C° 0 mm 4 mps 722 mmHg 63%
    10:00 +34°C° 0 mm 3 mps 722 mmHg 55%
    11:00 +36°C° 0 mm 3 mps 722 mmHg 47%
    12:00 +37°C° 0 mm 3 mps 721 mmHg 44%
    13:00 +37°C° 0 mm 2 mps 721 mmHg 41%
    14:00 +37°C° 0 mm 1 mps 720 mmHg 39%
    15:00 +36°C° 0 mm 1 mps 720 mmHg 42%
    16:00 +36°C° 0 mm 1 mps 719 mmHg 45%
    17:00 +35°C° 0 mm 1 mps 719 mmHg 48%
    18:00 +33°C° 0 mm 1 mps 719 mmHg 54%
    19:00 +31°C° 0 mm 1 mps 720 mmHg 60%
    20:00 +29°C° 0 mm 1 mps 720 mmHg 65%
    21:00 +29°C° 0.2 mm 1 mps 720 mmHg 69%
    22:00 +28°C° 0.2 mm 1 mps 720 mmHg 72%
    23:00 +27°C° 0.2 mm 1 mps 720 mmHg 76%

    3 June, Wednesday

    Time Temperature Precipitation Wind Pressure Humidity
    00:00 +27°C° 0.4 mm 1 mps 720 mmHg 78%
    01:00 +26°C° 0.4 mm 1 mps 720 mmHg 81%
    02:00 +26°C° 0.4 mm 1 mps 720 mmHg 84%
    03:00 +26°C° 0.6 mm 1 mps 720 mmHg 85%
    04:00 +26°C° 0.6 mm 1 mps 720 mmHg 87%
    05:00 +25°C° 0.6 mm 1 mps 720 mmHg 88%
    06:00 +26°C° 0 mm 2 mps 720 mmHg 85%
    07:00 +27°C° 0 mm 2 mps 721 mmHg 81%
    08:00 +28°C° 0 mm 3 mps 721 mmHg 77%
    09:00 +29°C° 0 mm 3 mps 721 mmHg 72%
    10:00 +30°C° 0 mm 3 mps 721 mmHg 67%
    11:00 +31°C° 0 mm 2 mps 721 mmHg 62%
    12:00 +34°C° 0 mm 2 mps 721 mmHg 57%
    13:00 +35°C° 0 mm 2 mps 720 mmHg 51%
    14:00 +36°C° 0 mm 2 mps 720 mmHg 46%
    15:00 +35°C° 0 mm 2 mps 719 mmHg 49%
    16:00 +33°C° 0 mm 1 mps 719 mmHg 53%
    17:00 +32°C° 0 mm 1 mps 719 mmHg 57%
    18:00 +31°C° 0 mm 1 mps 719 mmHg 61%
    19:00 +30°C° 0 mm 1 mps 719 mmHg 64%
    20:00 +26°C° 0 mm 0 mps 720 mmHg 68%
    21:00 +26°C° 0 mm 0 mps 720 mmHg 69%
    22:00 +26°C° 0 mm 0 mps 720 mmHg 70%
    23:00 +27°C° 0 mm 1 mps 720 mmHg 71%

    4 June, Thursday

    Time Temperature Precipitation Wind Pressure Humidity
    00:00 +27°C° 0.3 mm 1 mps 720 mmHg 75%
    01:00 +26°C° 0.3 mm 1 mps 720 mmHg 79%
    02:00 +25°C° 0.3 mm 1 mps 720 mmHg 84%
    03:00 +25°C° 0 mm 2 mps 720 mmHg 85%
    04:00 +25°C° 0 mm 2 mps 720 mmHg 87%
    05:00 +25°C° 0 mm 2 mps 720 mmHg 88%
    06:00 +26°C° 0 mm 2 mps 721 mmHg 83%
    07:00 +27°C° 0 mm 2 mps 721 mmHg 78%
    08:00 +28°C° 0 mm 2 mps 722 mmHg 74%
    09:00 +30°C° 0 mm 3 mps 722 mmHg 67%
    10:00 +31°C° 0 mm 3 mps 722 mmHg 59%
    11:00 +34°C° 0 mm 4 mps 722 mmHg 52%
    12:00 +34°C° 0 mm 3 mps 721 mmHg 51%
    13:00 +35°C° 0 mm 3 mps 720 mmHg 49%
    14:00 +36°C° 0 mm 3 mps 720 mmHg 47%
    15:00 +35°C° 0 mm 2 mps 720 mmHg 50%
    16:00 +34°C° 0 mm 2 mps 719 mmHg 52%
    17:00 +33°C° 0 mm 1 mps 719 mmHg 55%
    18:00 +31°C° 0 mm 1 mps 719 mmHg 60%
    19:00 +30°C° 0 mm 1 mps 720 mmHg 65%
    20:00 +26°C° 0 mm 0 mps 720 mmHg 69%
    21:00 +26°C° 0.1 mm 0 mps 720 mmHg 71%
    22:00 +27°C° 0.1 mm 1 mps 720 mmHg 73%
    23:00 +27°C° 0.1 mm 1 mps 721 mmHg 75%

    5 June, Friday

    Time Temperature Precipitation Wind Pressure Humidity
    00:00 +27°C° 0 mm 1 mps 721 mmHg 77%
    01:00 +26°C° 0 mm 1 mps 721 mmHg 78%
    02:00 +26°C° 0 mm 1 mps 721 mmHg 80%
    03:00 +26°C° 0.1 mm 1 mps 721 mmHg 81%
    04:00 +25°C° 0.1 mm 2 mps 721 mmHg 83%
    05:00 +25°C° 0.1 mm 2 mps 721 mmHg 85%
    06:00 +26°C° 0 mm 3 mps 721 mmHg 80%
    07:00 +27°C° 0 mm 3 mps 722 mmHg 75%
    08:00 +28°C° 0 mm 4 mps 723 mmHg 69%
    09:00 +30°C° 0 mm 4 mps 722 mmHg 62%
    10:00 +33°C° 0 mm 4 mps 722 mmHg 56%
    11:00 +35°C° 0 mm 3 mps 722 mmHg 49%
    12:00 +35°C° 0 mm 3 mps 722 mmHg 46%
    13:00 +36°C° 0 mm 3 mps 721 mmHg 44%
    14:00 +37°C° 0 mm 3 mps 720 mmHg 41%
    15:00 +36°C° 0 mm 2 mps 720 mmHg 45%
    16:00 +35°C° 0 mm 2 mps 720 mmHg 48%
    17:00 +34°C° 0 mm 1 mps 719 mmHg 51%
    18:00 +32°C° 0 mm 1 mps 720 mmHg 55%
    19:00 +30°C° 0 mm 1 mps 720 mmHg 59%
    20:00 +29°C° 0 mm 1 mps 720 mmHg 62%
    21:00 +28°C° 0.3 mm 1 mps 720 mmHg 66%
    22:00 +27°C° 0.3 mm 1 mps 720 mmHg 70%
    23:00 +27°C° 0.3 mm 2 mps 721 mmHg 74%
    Show more